DW3893 Weather Reports


time (UTC)temp
C
wind
direction
speed
KPH
gust
KPH
rain 1hr
cm
rain 24hr
cm
rain mn
cm
humidity
%
barometer
mb
20190419041114 11 83 8.0 19.3 0.00 0.00 0.00 51 956.2
20190419040124 11 81 9.7 16.1 0.00 0.00 0.00 51 956.2
20190419035110 11 100 4.8 16.1 0.00 0.00 0.00 50 956.2
20190419034107 11 91 4.8 11.3 0.00 0.00 0.00 49 956.2
20190419032102 11 72 4.8 16.1 0.00 0.00 0.00 49 956.2
20190419025056 12 59 0.0 11.3 0.00 0.00 0.00 48 956.2
20190419024054 12 74 3.2 16.1 0.00 0.00 0.00 46 956.2
20190419023102 13 84 6.4 16.1 0.00 0.00 0.00 46 956.2
20190419022049 13 90 9.7 16.1 0.00 0.00 0.00 46 956.2
20190419020057 13 97 9.7 24.1 0.00 0.00 0.00 46 956.2
20190419014039 13 93 9.7 22.5 0.00 0.00 0.00 46 956.2
20190419013049 13 102 6.4 19.3 0.00 0.00 0.00 46 956.2
20190419012143 13 117 6.4 22.5 0.00 0.00 0.00 46 956.2
20190419011140 13 78 9.7 22.5 0.00 0.00 0.00 46 956.2
20190419005135 13 91 9.7 20.9 0.00 0.00 0.00 46 956.2
20190419003200 14 83 11.3 20.9 0.00 0.00 0.00 45 956.2
20190419002130 14 84 9.7 22.5 0.00 0.00 0.00 45 956.2
20190419000138 14 88 8.0 25.7 0.00 0.00 0.00 46 956.2
20190418235124 13 83 6.4 22.5 0.00 0.00 0.00 46 956.2
20190418234122 13 83 8.0 16.1 0.00 0.00 0.00 46 956.2
20190418232117 13 76 4.8 14.5 0.00 0.00 0.00 48 956.2
20190418231115 13 62 6.4 24.1 0.00 0.00 0.00 48 956.2
20190418230126 13 90 4.8 14.5 0.00 0.00 0.00 48 956.2
20190418225112 13 117 4.8 16.1 0.00 0.00 0.00 48 956.2
20190418221103 13 49 3.2 11.3 0.00 0.00 0.00 48 956.2
20190418220114 13 68 3.2 11.3 0.00 0.00 0.00 48 956.2
20190418215101 13 40 4.8 11.3 0.00 0.00 0.00 48 956.2
20190418214057 13 46 4.8 11.3 0.00 0.00 0.00 49 956.2
20190418210102 12 44 1.6 8.0 0.00 0.00 0.00 50 956.2
20190418203055 13 79 3.2 12.9 0.00 0.00 0.00 48 956.2
20190418202043 13 92 1.6 11.3 0.00 0.00 0.00 46 956.2
20190418200052 13 79 4.8 12.9 0.00 0.00 0.00 46 956.2
20190418195038 13 104 0.0 8.0 0.00 0.00 0.00 46 956.2
20190418194037 14 86 3.2 8.0 0.00 0.00 0.00 46 956.2
20190418192038 15 84 4.8 11.3 0.00 0.00 0.00 45 956.2
20190418185038 15 87 4.8 12.9 0.00 0.00 0.00 45 956.2
20190418184144 15 70 1.6 11.3 0.00 0.00 0.00 44 956.2
20190418183154 16 90 0.0 4.8 0.00 0.00 0.00 40 956.2
20190418182138 16 97 0.0 9.7 0.00 0.00 0.00 38 956.2
20190418180145 17 89 3.2 12.9 0.00 0.00 0.00 37 956.2
20190418175125 18 83 1.6 12.9 0.00 0.00 0.00 36 956.2
20190418174122 18 83 4.8 14.5 0.00 0.00 0.00 36 956.2
20190418173130 18 91 4.8 16.1 0.00 0.00 0.00 36 956.2
20190418172113 18 101 9.7 19.3 0.00 0.00 0.00 34 956.2
20190418171110 19 102 9.7 20.9 0.00 0.00 0.00 34 956.2
20190418170120 20 46 3.2 12.9 0.00 0.00 0.00 34 956.2
20190418165101 20 93 8.0 16.1 0.00 0.00 0.00 34 956.2
20190418163107 20 88 8.0 19.3 0.00 0.00 0.00 34 956.2
20190418162050 20 84 1.6 22.5 0.00 0.00 0.00 34 956.2
20190418161045 20 82 9.7 24.1 0.00 0.00 0.00 34 956.2
20190418160057 20 74 4.8 27.4 0.00 0.00 0.00 34 956.2
20190418155038 21 116 8.0 25.7 0.00 0.00 0.00 33 956.2
20190418154151 22 81 12.9 24.1 0.00 0.00 0.00 33 956.2
20190418153154 21 109 4.8 22.5 0.00 0.00 0.00 32 956.2
20190418152137 21 40 4.8 20.9 0.00 0.00 0.00 33 956.2
20190418145142 21 78 8.0 20.9 0.00 0.00 0.00 33 956.2
20190418144125 21 49 8.0 22.5 0.00 0.00 0.00 33 956.2
20190418143129 21 82 11.3 22.5 0.00 0.00 0.00 33 956.2
20190418142112 21 88 4.8 19.3 0.00 0.00 0.00 34 956.2
20190418140118 21 65 8.0 27.4 0.00 0.00 0.00 34 956.2
20190418135100 21 95 11.3 25.7 0.00 0.00 0.00 34 956.2
20190418133106 21 91 11.3 25.7 0.00 0.00 0.00 36 956.2
20190418131058 21 85 8.0 16.1 0.00 0.00 0.00 36 956.2
20190418130056 21 75 6.4 22.5 0.00 0.00 0.00 36 956.2
20190418125039 21 72 4.8 14.5 0.00 0.00 0.00 36 956.2
20190418124137 20 81 9.7 20.9 0.00 0.00 0.00 36 956.2
20190418123147 20 80 8.0 16.1 0.00 0.00 0.00 36 956.2
20190418120138 20 86 9.7 27.4 0.00 0.00 0.00 36 956.2
20190418115120 20 106 9.7 27.4 0.00 0.00 0.00 34 956.2
20190418114117 20 68 6.4 16.1 0.00 0.00 0.00 37 956.2
20190418113126 21 55 8.0 20.9 0.00 0.00 0.00 37 956.2
20190418112110 21 135 9.7 20.9 0.00 0.00 0.00 37 956.2
20190418111107 20 96 8.0 25.7 0.00 0.00 0.00 37 956.2
20190418104056 19 81 12.9 27.4 0.00 0.00 0.00 38 956.2
20190418103106 19 92 9.7 29.0 0.00 0.00 0.00 38 956.2
20190418102049 19 77 6.4 24.1 0.00 0.00 0.00 40 956.2
20190418101046 18 96 8.0 22.5 0.00 0.00 0.00 41 956.2
20190418094143 17 90 9.7 29.0 0.00 0.00 0.00 43 956.2
20190418093152 17 91 9.7 32.2 0.00 0.00 0.00 43 956.2
20190418092136 18 78 8.0 19.3 0.00 0.00 0.00 44 956.2
20190418090144 17 86 8.0 22.5 0.00 0.00 0.00 44 956.2
20190418085124 17 113 4.8 14.5 0.00 0.00 0.00 44 956.2
20190418084121 17 90 9.7 20.9 0.00 0.00 0.00 44 956.2
20190418081111 16 115 4.8 16.1 0.00 0.00 0.00 45 956.2
20190418080121 16 103 9.7 24.1 0.00 0.00 0.00 45 956.2
20190418075103 16 94 3.2 16.1 0.00 0.00 0.00 45 956.2
20190418074059 16 90 1.6 16.1 0.00 0.00 0.00 45 956.2
20190418071048 15 89 4.8 16.1 0.00 0.00 0.00 46 956.2
20190418070057 13 87 8.0 16.1 0.00 0.00 0.00 46 956.2
20190418065040 13 97 8.0 22.5 0.00 0.00 0.00 48 956.2
20190418063148 12 111 8.0 19.3 0.00 0.00 0.00 48 956.2
20190418062133 12 94 9.7 19.3 0.00 0.00 0.00 48 956.2
20190418061129 12 94 11.3 27.4 0.00 0.00 0.00 49 956.2
20190418055122 12 87 11.3 27.4 0.00 0.00 0.00 48 956.2
20190418054118 11 91 8.0 20.9 0.00 0.00 0.00 48 956.2
20190418051107 11 88 3.2 19.3 0.00 0.00 0.00 49 956.2
20190418050118 11 95 1.6 12.9 0.00 0.00 0.00 48 956.2
20190418045101 11 91 8.0 16.1 0.00 0.00 0.00 48 956.2
20190418042050 11 109 8.0 16.1 0.00 0.00 0.00 48 956.2